Location: Petruro
(41.0333°N, 14.7833°E)
Time: 16:07:50
(UTC+00:00)

Lacrosse 5 rocket - Pass Details

Date: 20 June 2021
Orbit: 460 x 634 km, 57.0° (Epoch: 30 July)

Event Time Altitude Azimuth Distance (km) Brightness Sun altitude
Rises 01:31:32 0° 325° (NW) 2,490 4.9 -16.8°
Reaches altitude 10° 01:34:15 10° 347° (NNW) 1,623 4.3 -16.5°
Maximum altitude 01:36:40 17° 29° (NNE) 1,278 4.3 -16.3°
Drops below altitude 10° 01:39:07 10° 71° (ENE) 1,652 4.6 -16.0°
Sets 01:41:55 0° 93° (E) 2,559 5.2 -15.7°
